Home   Weather   Lustenau   Past weeks

Flag for Austria Past Weather in Lustenau, Vorarlberg, Austria — Yesterday and Last 2 Weeks

Now
66 °F

Passing clouds.


Feels Like: 66 °F
Forecast: 36 / 47 °F
Wind: 10 mph from Southwest

Location: Saint Gallen-Altenrhein

Current Time: Feb 23, 2017 at 5:39:33 pm

Latest Report: Feb 23, 2017 at 4:50 pm


Visibility: N/A

Pressure: 29.59 "Hg

Humidity: 26%

Dew Point: 30 °F

Location of LustenauLocation

Past Weather in Lustenau — Graph

°F

Lustenau Temperature Yesterday

Maximum temperature yesterday: 55 °F (at 2:20 pm)
Minimum temperature yesterday: 43 °F (at 9:50 pm)
Average temperature yesterday: 49 °F

High & Low Weather Summary for the Past Weeks

 TemperatureHumidityPressure
High66 °F (Feb 23, 3:50 pm)100% (Feb 10, 10:50 pm)30.60 "Hg (Feb 10, 10:50 pm)
Low27 °F (Feb 14, 9:50 pm)24% (Feb 23, 4:20 pm)29.62 "Hg (Feb 23, 3:50 pm)
Average38 °F89%30.23 "Hg
* Reported Feb 8 4:20 pm — Feb 23 4:20 pm, Lustenau, Weather by CustomWeather, © 2017

Note: Actual official high and low records may vary slightly from our data, if they occured in-between our weather recording intervals... More about our weather records

Advertising

Lustenau Weather History for the Previous 24 Hours

Scroll right to see more
 ConditionsComfort  
Time TempWeatherWind HumidityBarometerVisibility
4:20 pm
Thu, Feb 23
66 °FPassing clouds.14 mph24%29.62 "HgN/A
3:50 pm66 °FPassing clouds.10 mph26%29.62 "HgN/A
3:20 pm61 °FPassing clouds.5 mph42%29.65 "HgN/A
2:50 pm57 °FPassing clouds.5 mph51%29.65 "HgN/A
2:20 pm57 °FSunny.5 mph51%29.71 "Hg10 mi
1:50 pm59 °FSunny.5 mph45%29.71 "Hg10 mi
1:20 pm57 °FSunny.2 mph44%29.74 "Hg10 mi
12:50 pm54 °FPassing clouds.3 mph51%29.74 "HgN/A
12:20 pm52 °FSunny.2 mph58%29.77 "Hg10 mi
11:50 am48 °FPassing clouds.5 mph76%29.80 "HgN/A
11:20 am52 °FSunny.2 mph67%29.80 "Hg10 mi
10:50 am48 °FSunny.2 mph76%29.80 "Hg10 mi
10:20 am46 °FSunny.2 mph82%29.83 "Hg10 mi
9:50 am45 °FSunny.2 mph87%29.83 "Hg10 mi
9:20 am43 °FSunny.6 mph87%29.83 "Hg10 mi
8:50 am41 °FSunny.5 mph100%29.86 "Hg10 mi
8:20 am36 °FSunny.2 mph100%29.86 "Hg10 mi
7:50 am37 °FSunny.1 mph93%29.89 "Hg10 mi
7:20 am36 °FSunny.1 mph100%29.89 "Hg10 mi
6:50 am36 °FClear.2 mph100%29.89 "Hg10 mi
6:20 am36 °FClear.2 mph100%29.92 "Hg10 mi
5:50 am36 °FClear.2 mph100%29.92 "HgN/A
5:20 am39 °FClear.3 mph100%29.92 "Hg10 mi
4:50 am36 °FClear.1 mph100%29.92 "Hg10 mi
4:20 am37 °FClear.1 mph100%29.95 "Hg10 mi
3:50 am37 °FClear.3 mph100%29.95 "Hg10 mi
3:20 am37 °FClear.2 mph100%29.95 "HgN/A
2:50 am39 °FClear.2 mph100%29.95 "Hg10 mi
2:20 am41 °FClear.3 mph100%29.98 "Hg10 mi
1:50 am41 °FClear.2 mph93%29.98 "Hg10 mi
1:20 am43 °FClear.3 mph93%29.98 "Hg10 mi
12:50 am43 °FClear.2 mph93%29.98 "HgN/A
12:20 am45 °FPartly cloudy.2 mph87%29.98 "HgN/A
11:50 pm
Wed, Feb 22
46 °FPartly cloudy.2 mph82%29.98 "HgN/A
11:20 pm46 °FOvercast.6 mph82%29.98 "HgN/A
10:50 pm45 °FPartly cloudy.5 mph87%30.01 "HgN/A
10:20 pm45 °FPassing clouds.5 mph87%30.01 "HgN/A
9:50 pm43 °FMostly cloudy.2 mph93%30.01 "HgN/A
9:20 pm45 °FOvercast.1 mph87%30.01 "HgN/A
8:50 pm46 °FPassing clouds.1 mph82%30.01 "HgN/A
8:20 pm45 °FPassing clouds.7 mph87%30.01 "HgN/A
7:50 pm46 °FPassing clouds.2 mph82%29.98 "HgN/A
7:20 pm46 °FPassing clouds.2 mph82%30.01 "HgN/A
6:50 pm46 °FClear.1 mph82%30.01 "Hg10 mi
6:20 pm48 °FPassing clouds.5 mph76%29.98 "HgN/A
5:50 pm48 °FScattered clouds.3 mph76%29.98 "HgN/A
5:20 pm48 °FSunny.2 mph76%29.98 "Hg10 mi
Weather by CustomWeather, © 2017

See weather overviewHow to use our weather pages